When you browse on this site, cookies collect data to enhance your experience and personalize the content and advertising you see.
Visit our Privacy Policy to learn more. By continuing to use the site, you agree to this use of cookies and data.
  • In Lithuania
  • List of Countries
  • For 7 days
  • Water Temperature
  • Weather Map
  • Weather Widgets
  • user-avatar
    Login

    Hourly Weather Uige

    Today, 14 October, Monday

    Time Temperature Precipitation Wind Pressure Humidity
    00:00 +22°C° 0.2 mm 1 mps 691 mmHg 94%
    01:00 +22°C° 0 mm 1 mps 690 mmHg 96%
    02:00 +20°C° 0.2 mm 0 mps 690 mmHg 96%
    03:00 +20°C° 0.2 mm 0 mps 690 mmHg 96%
    04:00 +20°C° 0.2 mm 0 mps 690 mmHg 96%
    05:00 +20°C° 0.7 mm 0 mps 690 mmHg 95%
    06:00 +23°C° 0.7 mm 1 mps 691 mmHg 94%
    07:00 +23°C° 0 mm 1 mps 692 mmHg 91%
    08:00 +24°C° 0.2 mm 1 mps 692 mmHg 89%
    09:00 +22°C° 0.2 mm 0 mps 692 mmHg 87%
    10:00 +23°C° 0.2 mm 0 mps 692 mmHg 85%
    11:00 +24°C° 1.2 mm 0 mps 692 mmHg 80%
    12:00 +28°C° 1.2 mm 1 mps 691 mmHg 75%
    13:00 +29°C° 1.2 mm 1 mps 691 mmHg 70%
    14:00 +28°C° 1.5 mm 1 mps 690 mmHg 74%
    15:00 +27°C° 1.5 mm 1 mps 689 mmHg 78%
    16:00 +27°C° 1.5 mm 1 mps 688 mmHg 82%
    17:00 +25°C° 0.1 mm 1 mps 689 mmHg 87%
    18:00 +24°C° 0.1 mm 1 mps 689 mmHg 91%
    19:00 +21°C° 0.1 mm 0 mps 690 mmHg 95%
    20:00 +21°C° 0 mm 0 mps 690 mmHg 96%
    21:00 +21°C° 0 mm 0 mps 691 mmHg 97%
    22:00 +20°C° 0 mm 0 mps 691 mmHg 98%
    23:00 +20°C° 0.2 mm 0 mps 691 mmHg 98%

    Tomorrow, 15 October, Tuesday

    Time Temperature Precipitation Wind Pressure Humidity
    00:00 +20°C° 0.2 mm 0 mps 691 mmHg 98%
    01:00 +20°C° 0.2 mm 0 mps 691 mmHg 98%
    02:00 +22°C° 0.1 mm 1 mps 690 mmHg 97%
    03:00 +22°C° 0.1 mm 1 mps 690 mmHg 97%
    04:00 +22°C° 0.1 mm 1 mps 690 mmHg 97%
    05:00 +23°C° 0.3 mm 1 mps 691 mmHg 96%
    06:00 +23°C° 0.3 mm 1 mps 691 mmHg 95%
    07:00 +23°C° 0.3 mm 1 mps 692 mmHg 95%
    08:00 +23°C° 0.5 mm 1 mps 692 mmHg 94%
    09:00 +23°C° 0.5 mm 1 mps 692 mmHg 94%
    10:00 +24°C° 0.5 mm 1 mps 692 mmHg 93%
    11:00 +24°C° 0.1 mm 1 mps 691 mmHg 89%
    12:00 +25°C° 0.1 mm 1 mps 690 mmHg 85%
    13:00 +26°C° 0.1 mm 1 mps 690 mmHg 81%
    14:00 +26°C° 0.3 mm 1 mps 690 mmHg 80%
    15:00 +26°C° 0.3 mm 1 mps 689 mmHg 79%
    16:00 +26°C° 0.3 mm 2 mps 689 mmHg 78%
    17:00 +25°C° 0.7 mm 1 mps 689 mmHg 84%
    18:00 +24°C° 0.7 mm 1 mps 689 mmHg 89%
    19:00 +23°C° 0.7 mm 1 mps 690 mmHg 94%
    20:00 +23°C° 0.8 mm 1 mps 690 mmHg 94%
    21:00 +23°C° 0.8 mm 1 mps 690 mmHg 95%
    22:00 +22°C° 0.8 mm 1 mps 691 mmHg 96%
    23:00 +22°C° 1.2 mm 1 mps 690 mmHg 96%

    Day after tomorrow, 16 October, Wednesday

    Time Temperature Precipitation Wind Pressure Humidity
    00:00 +22°C° 1.2 mm 1 mps 690 mmHg 96%
    01:00 +22°C° 1.2 mm 1 mps 690 mmHg 96%
    02:00 +22°C° 0.1 mm 1 mps 690 mmHg 97%
    03:00 +22°C° 0.1 mm 1 mps 690 mmHg 97%
    04:00 +20°C° 0.1 mm 0 mps 690 mmHg 98%
    05:00 +20°C° 0.1 mm 0 mps 690 mmHg 97%
    06:00 +21°C° 0.1 mm 0 mps 691 mmHg 96%
    07:00 +21°C° 0.1 mm 0 mps 692 mmHg 96%
    08:00 +21°C° 1.8 mm 0 mps 691 mmHg 94%
    09:00 +21°C° 1.8 mm 0 mps 691 mmHg 93%
    10:00 +23°C° 1.8 mm 1 mps 691 mmHg 92%
    11:00 +24°C° 0 mm 1 mps 690 mmHg 85%
    12:00 +24°C° 0 mm 0 mps 690 mmHg 78%
    13:00 +25°C° 0 mm 0 mps 690 mmHg 71%
    14:00 +28°C° 0.1 mm 1 mps 689 mmHg 69%
    15:00 +28°C° 0.1 mm 1 mps 689 mmHg 67%
    16:00 +29°C° 0.1 mm 1 mps 689 mmHg 65%
    17:00 +27°C° 0.5 mm 1 mps 689 mmHg 74%
    18:00 +25°C° 0.5 mm 1 mps 690 mmHg 83%
    19:00 +23°C° 0.5 mm 1 mps 690 mmHg 93%
    20:00 +23°C° 1.4 mm 1 mps 690 mmHg 94%
    21:00 +23°C° 1.4 mm 1 mps 691 mmHg 96%
    22:00 +21°C° 1.4 mm 0 mps 691 mmHg 98%
    23:00 +21°C° 1.6 mm 0 mps 691 mmHg 97%

    17 October, Thursday

    Time Temperature Precipitation Wind Pressure Humidity
    00:00 +21°C° 1.6 mm 0 mps 691 mmHg 97%
    01:00 +21°C° 1.6 mm 0 mps 691 mmHg 97%
    02:00 +20°C° 0.4 mm 0 mps 690 mmHg 97%
    03:00 +20°C° 0.4 mm 0 mps 690 mmHg 97%
    04:00 +20°C° 0.4 mm 0 mps 690 mmHg 98%
    05:00 +20°C° 0.1 mm 0 mps 691 mmHg 97%
    06:00 +21°C° 0.1 mm 0 mps 691 mmHg 96%
    07:00 +21°C° 0.1 mm 0 mps 692 mmHg 96%
    08:00 +22°C° 0.3 mm 0 mps 692 mmHg 90%
    09:00 +24°C° 0.3 mm 0 mps 692 mmHg 85%
    10:00 +25°C° 0.3 mm 0 mps 692 mmHg 80%
    11:00 +27°C° 1.8 mm 1 mps 692 mmHg 80%
    12:00 +28°C° 1.8 mm 1 mps 691 mmHg 80%
    13:00 +28°C° 1.8 mm 1 mps 690 mmHg 80%
    14:00 +27°C° 1.3 mm 1 mps 690 mmHg 82%
    15:00 +27°C° 1.3 mm 1 mps 689 mmHg 84%
    16:00 +26°C° 1.3 mm 1 mps 689 mmHg 87%
    17:00 +25°C° 1.8 mm 1 mps 689 mmHg 90%
    18:00 +24°C° 1.8 mm 1 mps 690 mmHg 92%
    19:00 +23°C° 1.8 mm 1 mps 690 mmHg 95%
    20:00 +23°C° 0.9 mm 1 mps 691 mmHg 96%
    21:00 +22°C° 0.9 mm 1 mps 691 mmHg 97%
    22:00 +22°C° 0.9 mm 1 mps 691 mmHg 97%
    23:00 +22°C° 0.6 mm 1 mps 691 mmHg 98%

    18 October, Friday

    Time Temperature Precipitation Wind Pressure Humidity
    00:00 +20°C° 0.6 mm 0 mps 691 mmHg 98%
    01:00 +20°C° 0.6 mm 0 mps 691 mmHg 98%
    02:00 +20°C° 0.2 mm 0 mps 691 mmHg 98%
    03:00 +22°C° 0.2 mm 1 mps 691 mmHg 98%
    04:00 +22°C° 0.2 mm 1 mps 691 mmHg 98%
    05:00 +22°C° 0.1 mm 1 mps 691 mmHg 97%
    06:00 +22°C° 0.1 mm 1 mps 691 mmHg 97%
    07:00 +22°C° 0.1 mm 1 mps 692 mmHg 96%
    08:00 +24°C° 0.1 mm 1 mps 692 mmHg 89%
    09:00 +25°C° 0.1 mm 1 mps 692 mmHg 82%
    10:00 +27°C° 0.1 mm 1 mps 692 mmHg 76%
    11:00 +27°C° 0.6 mm 1 mps 692 mmHg 75%
    12:00 +28°C° 0.6 mm 1 mps 691 mmHg 74%
    13:00 +28°C° 0.6 mm 1 mps 690 mmHg 73%
    14:00 +28°C° 1 mm 1 mps 690 mmHg 77%
    15:00 +27°C° 1 mm 1 mps 689 mmHg 81%
    16:00 +26°C° 1 mm 1 mps 689 mmHg 85%
    17:00 +25°C° 0.4 mm 1 mps 689 mmHg 89%
    18:00 +24°C° 0.4 mm 1 mps 689 mmHg 93%
    19:00 +23°C° 0.4 mm 1 mps 690 mmHg 96%
    20:00 +22°C° 0.1 mm 1 mps 690 mmHg 97%
    21:00 +22°C° 0.1 mm 1 mps 691 mmHg 97%
    22:00 +22°C° 0.1 mm 1 mps 691 mmHg 98%
    23:00 +22°C° 0.1 mm 1 mps 691 mmHg 98%

    19 October, Saturday

    Time Temperature Precipitation Wind Pressure Humidity
    00:00 +22°C° 0.1 mm 1 mps 691 mmHg 98%
    01:00 +22°C° 0.1 mm 1 mps 690 mmHg 98%
    02:00 +22°C° 0.1 mm 1 mps 690 mmHg 98%
    03:00 +22°C° 0.1 mm 1 mps 690 mmHg 98%
    04:00 +22°C° 0.1 mm 1 mps 690 mmHg 98%
    05:00 +22°C° 0.1 mm 1 mps 690 mmHg 97%
    06:00 +22°C° 0.1 mm 1 mps 690 mmHg 96%
    07:00 +22°C° 0.1 mm 1 mps 691 mmHg 95%
    08:00 +24°C° 0 mm 1 mps 691 mmHg 87%
    09:00 +25°C° 0 mm 1 mps 691 mmHg 79%
    10:00 +27°C° 0 mm 1 mps 692 mmHg 71%
    11:00 +28°C° 0 mm 1 mps 691 mmHg 68%
    12:00 +29°C° 0 mm 1 mps 691 mmHg 65%
    13:00 +29°C° 0 mm 1 mps 690 mmHg 62%
    14:00 +29°C° 0.6 mm 1 mps 689 mmHg 67%
    15:00 +28°C° 0.6 mm 1 mps 689 mmHg 73%
    16:00 +27°C° 0.6 mm 1 mps 688 mmHg 78%
    17:00 +25°C° 0.3 mm 1 mps 688 mmHg 83%
    18:00 +24°C° 0.3 mm 1 mps 689 mmHg 88%
    19:00 +21°C° 0.3 mm 0 mps 689 mmHg 93%
    20:00 +21°C° 0 mm 0 mps 690 mmHg 94%
    21:00 +20°C° 0 mm 0 mps 690 mmHg 94%
    22:00 +20°C° 0 mm 0 mps 690 mmHg 95%
    23:00 +20°C° 0 mm 0 mps 690 mmHg 95%
    Show more